Dickinson, ND

12:07 AM MST on January 17, 2018 (GMT -0700)
Dickinson Municipal

Weather History for KDIK - May, 2014

Change the Weather History Date:

Thursday, May 22, 2014

  Actual Average Record
Temperature  
Mean Temperature 64 °F 55 °F  
Max Temperature 79 °F 68 °F 99 °F (1980)
Min Temperature 49 °F 42 °F 24 °F (1918)
Degree Days  
Heating Degree Days 1 10  
Month to date heating degree days 381 298  
Since 1 July heating degree days 8994 8360  
Cooling Degree Days 0 0  
Month to date cooling degree days 0 0  
Year to date cooling degree days 0 1  
Growing Degree Days 14 (Base 50)    
Moisture  
Dew Point 49 °F    
Average Humidity 59    
Maximum Humidity 78    
Minimum Humidity 39    
Precipitation  
Precipitation 0.00 in 0.08 in 2.60 in (1903)
Month to date precipitation 1.21 1.58  
Year to date precipitation 3.07 4.37  
Sea Level Pressure  
Sea Level Pressure 30.05 in    
Wind  
Wind Speed 12 mph (SSE)    
Max Wind Speed 23 mph    
Max Gust Speed 30 mph    
Visibility 10 miles    
Events      
T = Trace of Precipitation, MM = Missing Value Source: NWS Daily Summary

Daily Weather History Graph

Daily Weather History Graph

Search for Another Location

Airport or City:

Trip Planner

Search our weather history database for the weather conditions in past years. The results will help you decide how hot, cold, wet, or windy it might be!

Date:

Astronomy

May. 22, 2014 Rise Set
Actual Time 5:08 AM MDT 8:27 PM MDT
Civil Twilight 4:31 AM MDT 9:04 PM MDT
Nautical Twilight 3:43 AM MDT 9:53 PM MDT
Astronomical Twilight 2:42 AM MDT 10:55 PM MDT
Moon 1:54 AM MDT (5/22) 1:54 PM MDT (5/22)
Length of Visible Light 16h 32m
Length of Day
15h 18m
Last Quarter, 37% of the Moon is Illuminated
May 22
Last Quarter
May 28
New
Jun 5
First Quarter
Jun 12
Full
Jun 19
Last Quarter

Hourly Weather History & Observations

Time (MDT) Temp. Dew Point Humidity Pressure Visibility Wind Dir Wind Speed Gust Speed Precip Events Conditions
12:56 AM 52.0 °F 44.1 °F 74% 30.10 in 10.0 mi South 9.2 mph - N/A   Mostly Cloudy
1:56 AM 51.1 °F 43.0 °F 74% 30.10 in 10.0 mi South 8.1 mph - N/A   Mostly Cloudy
2:56 AM 50.0 °F 43.0 °F 77% 30.10 in 10.0 mi SSE 6.9 mph - N/A   Mostly Cloudy
3:56 AM 52.0 °F 45.0 °F 77% 30.09 in 10.0 mi SSE 9.2 mph - N/A   Overcast
4:56 AM 53.1 °F 46.0 °F 77% 30.09 in 10.0 mi SSE 8.1 mph - N/A   Overcast
5:56 AM 54.0 °F 46.0 °F 75% 30.09 in 10.0 mi ESE 4.6 mph - N/A   Overcast
6:56 AM 55.0 °F 46.0 °F 72% 30.09 in 10.0 mi SE 8.1 mph - N/A   Scattered Clouds
7:56 AM 60.1 °F 44.1 °F 55% 30.10 in 10.0 mi SSE 13.8 mph - N/A   Overcast
8:56 AM 64.9 °F 45.0 °F 48% 30.10 in 10.0 mi SSE 16.1 mph 20.7 mph N/A   Mostly Cloudy
9:56 AM 68.0 °F 46.0 °F 45% 30.09 in 10.0 mi SSE 17.3 mph 24.2 mph N/A   Clear
10:56 AM 70.0 °F 46.9 °F 44% 30.08 in 10.0 mi SE 16.1 mph 28.8 mph N/A   Clear
11:56 AM 72.0 °F 48.9 °F 44% 30.07 in 10.0 mi SSE 16.1 mph 24.2 mph N/A   Clear
1:56 PM 75.0 °F 51.1 °F 43% 30.04 in 10.0 mi SSE 15.0 mph 21.9 mph N/A   Scattered Clouds
3:56 PM 78.1 °F 52.0 °F 40% 30.01 in 10.0 mi South 11.5 mph 18.4 mph N/A   Scattered Clouds
4:56 PM 78.1 °F 53.1 °F 42% 29.99 in 10.0 mi SSE 11.5 mph - N/A   Scattered Clouds
5:56 PM 75.0 °F 52.0 °F 44% 29.99 in 10.0 mi South 9.2 mph - N/A   Mostly Cloudy
6:56 PM 73.9 °F 53.1 °F 48% 29.98 in 10.0 mi South 9.2 mph - N/A   Clear
7:56 PM 71.1 °F 54.0 °F 55% 29.98 in 10.0 mi South 10.4 mph - N/A   Scattered Clouds
8:56 PM 64.0 °F 54.0 °F 70% 29.99 in 10.0 mi SSE 9.2 mph - N/A   Partly Cloudy
9:56 PM 62.1 °F 54.0 °F 75% 30.01 in 10.0 mi SSE 10.4 mph - N/A   Clear
10:56 PM 61.0 °F 54.0 °F 78% 30.00 in 10.0 mi SSE 12.7 mph - N/A   Clear
11:56 PM 61.0 °F 52.0 °F 72% 30.01 in 10.0 mi SSE 15.0 mph - N/A   Clear